,,PA_Meas_PMT16A,,PR_Meas_QMR101_102,,RH_Meas_QMH101,,SR_Meas_QMS101,,TA_Meas_QMH101,,GenWind,,GenWind,
time,status,PA,status,PR,status,RH,status,SR,status,TA,status,DirAvg,status,SpdAvg,
2012-04-14, 00:00:04,VALID,917.353,VALID,0,VALID,97.4577,VALID,0,VALID,20.93,VALID,62,VALID,0,
2012-04-14, 00:01:04,VALID,917.334,VALID,0,VALID,97.473,VALID,0,VALID,20.9284,VALID,62,VALID,0,
2012-04-14, 00:02:04,VALID,917.284,VALID,0,VALID,97.4882,VALID,0,VALID,20.9511,VALID,62,VALID,0,
2012-04-14, 00:03:04,VALID,917.277,VALID,0,VALID,97.4806,VALID,0,VALID,20.93,VALID,62,VALID,0,
2012-04-14, 00:04:04,VALID,917.252,VALID,0,VALID,97.473,VALID,0,VALID,20.9284,VALID,62,VALID,0,
2012-04-14, 00:05:04,VALID,917.25,VALID,0,VALID,97.4882,VALID,0,VALID,20.9885,VALID,62,VALID,0,
2012-04-14, 00:06:04,VALID,917.266,VALID,0,VALID,97.4882,VALID,0,VALID,20.9495,VALID,61,VALID,0.333984,
2012-04-14, 00:07:04,VALID,917.283,VALID,0,VALID,97.4959,VALID,0,VALID,20.93,VALID,61,VALID,0.323438,
2012-04-14, 00:08:04,VALID,917.311,VALID,0,VALID,97.4959,VALID,0,VALID,20.93,VALID,62,VALID,0.174219,
2012-04-14, 00:09:04,VALID,917.314,VALID,0,VALID,97.473,VALID,0,VALID,20.9316,VALID,62,VALID,0,
2012-04-14, 00:10:04,VALID,917.284,VALID,0,VALID,97.5035,VALID,0,VALID,20.9105,VALID,62,VALID,0,
2012-04-14, 00:11:04,VALID,917.291,VALID,0,VALID,97.4806,VALID,0,VALID,20.891,VALID,62,VALID,0,
2012-04-14, 00:12:04,VALID,917.294,VALID,0,VALID,97.4882,VALID,0,VALID,20.8519,VALID,61,VALID,0.599609,
2012-04-14, 00:13:04,VALID,917.226,VALID,0,VALID,97.4882,VALID,0,VALID,20.873,VALID,62,VALID,0.103516,
2012-04-14, 00:14:04,VALID,917.255,VALID,0,VALID,97.4882,VALID,0,VALID,20.891,VALID,62,VALID,0,
2012-04-14, 00:15:04,VALID,917.23,VALID,0,VALID,97.473,VALID,0,VALID,20.891,VALID,62,VALID,0.371484,
2012-04-14, 00:16:04,VALID,917.228,VALID,0,VALID,97.5111,VALID,0,VALID,20.93,VALID,62,VALID,0.427344,
2012-04-14, 00:17:04,VALID,917.162,VALID,0,VALID,97.5035,VALID,0,VALID,20.9706,VALID,62,VALID,0.53125,
2012-04-14, 00:18:04,VALID,917.165,VALID,0,VALID,97.4882,VALID,0,VALID,20.9105,VALID,62,VALID,0.138281,
2012-04-14, 00:19:04,VALID,917.163,VALID,0,VALID,97.5111,VALID,0,VALID,20.9511,VALID,62,VALID,0.0398437,
2012-04-14, 00:20:04,VALID,917.151,VALID,0,VALID,97.4882,VALID,0,VALID,20.9495,VALID,62,VALID,0.531641,
2012-04-14, 00:21:04,VALID,917.13,VALID,0,VALID,97.5035,VALID,0,VALID,20.969,VALID,62,VALID,0.630078,
2012-04-14, 00:22:04,VALID,917.144,VALID,0,VALID,97.5035,VALID,0,VALID,20.969,VALID,61,VALID,0,
2012-04-14, 00:23:04,VALID,917.133,VALID,0,VALID,97.5187,VALID,0,VALID,21.008,VALID,62,VALID,0,
2012-04-14, 00:24:04,VALID,917.129,VALID,0,VALID,97.5035,VALID,0,VALID,20.9885,VALID,62,VALID,0.209766,
2012-04-14, 00:25:04,VALID,917.1,VALID,0,VALID,97.5111,VALID,0,VALID,21.0096,VALID,61,VALID,0.483594,
2012-04-14, 00:26:04,VALID,917.092,VALID,0,VALID,97.5111,VALID,0,VALID,20.9901,VALID,61,VALID,0.197656,
2012-04-14, 00:27:04,VALID,917.104,VALID,0,VALID,97.4959,VALID,0,VALID,20.9885,VALID,61,VALID,0.228906,
2012-04-14, 00:28:04,VALID,917.064,VALID,0,VALID,97.5187,VALID,0,VALID,20.9885,VALID,61,VALID,0.248437,
2012-04-14, 00:29:04,VALID,917.074,VALID,0,VALID,97.5035,VALID,0,VALID,20.9495,VALID,61,VALID,0.0195313,
2012-04-14, 00:30:04,VALID,917.043,VALID,0,VALID,97.5111,VALID,0,VALID,20.93,VALID,61,VALID,0.00195313,
2012-04-14, 00:31:04,VALID,917.009,VALID,0,VALID,97.4882,VALID,0,VALID,20.93,VALID,62,VALID,0,
2012-04-14, 00:32:04,VALID,916.988,VALID,0,VALID,97.4959,VALID,0,VALID,20.9105,VALID,62,VALID,0.626172,
2012-04-14, 00:33:04,VALID,916.971,VALID,0,VALID,97.4806,VALID,0,VALID,20.8714,VALID,62,VALID,0.341016,
2012-04-14, 00:34:04,VALID,916.959,VALID,0,VALID,97.5035,VALID,0,VALID,20.8519,VALID,62,VALID,0.0433594,
2012-04-14, 00:35:04,VALID,916.961,VALID,0,VALID,97.5187,VALID,0,VALID,20.891,VALID,62,VALID,0,
2012-04-14, 00:36:04,VALID,916.965,VALID,0,VALID,97.5035,VALID,0,VALID,20.8699,VALID,62,VALID,0,
2012-04-14, 00:37:04,VALID,916.973,VALID,0,VALID,97.5035,VALID,0,VALID,20.9105,VALID,62,VALID,0.025,
2012-04-14, 00:38:04,VALID,916.955,VALID,0,VALID,97.5187,VALID,0,VALID,20.9495,VALID,62,VALID,0.619141,
2012-04-14, 00:39:04,VALID,916.992,VALID,0,VALID,97.5111,VALID,0.107441,VALID,20.9674,VALID,47,VALID,1.15898,
2012-04-14, 00:40:04,VALID,917.013,VALID,0,VALID,97.534,VALID,0.107441,VALID,21.008,VALID,42,VALID,0.535937,
2012-04-14, 00:41:04,VALID,917.025,VALID,0,VALID,97.5264,VALID,0,VALID,21.0259,VALID,42,VALID,0.841016,
2012-04-14, 00:42:04,VALID,917.009,VALID,0,VALID,97.5035,VALID,0.107441,VALID,21.0259,VALID,42,VALID,0.830469,
2012-04-14, 00:43:04,VALID,917.034,VALID,0,VALID,97.5264,VALID,0,VALID,21.0454,VALID,42,VALID,0.671875,
2012-04-14, 00:44:04,VALID,917.037,VALID,0,VALID,97.4959,VALID,0,VALID,21.0259,VALID,42,VALID,0.959766,
2012-04-14, 00:45:04,VALID,916.992,VALID,0,VALID,97.5111,VALID,0,VALID,21.047,VALID,42,VALID,0.747266,
2012-04-14, 00:46:04,VALID,916.949,VALID,0,VALID,97.5187,VALID,0,VALID,21.0275,VALID,42,VALID,0.793359,
2012-04-14, 00:47:04,VALID,916.92,VALID,0,VALID,97.4806,VALID,0,VALID,20.9089,VALID,42,VALID,0.751172,
2012-04-14, 00:48:04,VALID,916.847,VALID,0,VALID,97.4882,VALID,0,VALID,20.9284,VALID,42,VALID,0.460156,
2012-04-14, 00:49:04,VALID,916.861,VALID,0,VALID,97.534,VALID,0.107441,VALID,20.9479,VALID,42,VALID,0.398828,
2012-04-14, 00:50:04,VALID,916.844,VALID,0,VALID,97.5035,VALID,0,VALID,20.9479,VALID,42,VALID,0,
2012-04-14, 00:51:04,VALID,916.815,VALID,0,VALID,97.534,VALID,0,VALID,20.9284,VALID,42,VALID,0,
2012-04-14, 00:52:04,VALID,916.834,VALID,0,VALID,97.5187,VALID,0,VALID,20.9869,VALID,42,VALID,0,
2012-04-14, 00:53:04,VALID,916.825,VALID,0,VALID,97.5416,VALID,0.107441,VALID,21.0064,VALID,42,VALID,0.237109,
2012-04-14, 00:54:04,VALID,916.805,VALID,0,VALID,97.534,VALID,0,VALID,20.9885,VALID,42,VALID,0.164844,
2012-04-14, 00:55:04,VALID,916.81,VALID,0,VALID,97.5035,VALID,0,VALID,20.969,VALID,42,VALID,0,
2012-04-14, 00:56:04,VALID,916.808,VALID,0,VALID,97.5111,VALID,0,VALID,20.9885,VALID,42,VALID,0,
2012-04-14, 00:57:04,VALID,916.79,VALID,0,VALID,97.5416,VALID,0,VALID,20.9885,VALID,42,VALID,0.579687,
2012-04-14, 00:58:04,VALID,916.747,VALID,0,VALID,97.5035,VALID,0,VALID,20.9869,VALID,42,VALID,0.517969,
2012-04-14, 00:59:04,VALID,916.733,VALID,0,VALID,97.5035,VALID,0,VALID,20.9885,VALID,42,VALID,0.354688,
2012-04-14, 01:00:04,VALID,916.721,VALID,0,VALID,97.5187,VALID,0,VALID,20.9885,VALID,42,VALID,0.207031,
2012-04-14, 01:01:04,VALID,916.637,VALID,0,VALID,97.4959,VALID,0,VALID,20.9901,VALID,42,VALID,0.159375,
2012-04-14, 01:02:04,VALID,916.66,VALID,0,VALID,97.5492,VALID,0,VALID,20.9885,VALID,42,VALID,0.346484,
2012-04-14, 01:03:04,VALID,916.619,VALID,0,VALID,97.534,VALID,0,VALID,20.9885,VALID,42,VALID,0,
2012-04-14, 01:04:04,VALID,916.574,VALID,0,VALID,97.5187,VALID,0,VALID,20.969,VALID,42,VALID,0.0832031,
2012-04-14, 01:05:04,VALID,916.552,VALID,0,VALID,97.534,VALID,0,VALID,20.9105,VALID,42,VALID,0.0679687,
2012-04-14, 01:06:04,VALID,916.547,VALID,0,VALID,97.5264,VALID,0,VALID,20.8894,VALID,42,VALID,0,
2012-04-14, 01:07:04,VALID,916.552,VALID,0,VALID,97.5187,VALID,0,VALID,20.9105,VALID,41,VALID,0,
2012-04-14, 01:08:04,VALID,916.524,VALID,0,VALID,97.5111,VALID,0,VALID,20.8714,VALID,41,VALID,0.282813,
2012-04-14, 01:09:04,VALID,916.492,VALID,0,VALID,97.534,VALID,0,VALID,20.8714,VALID,42,VALID,0.0746094,
2012-04-14, 01:10:04,VALID,916.505,VALID,0,VALID,97.534,VALID,0,VALID,20.891,VALID,42,VALID,0.635547,
2012-04-14, 01:11:04,VALID,916.441,VALID,0,VALID,97.5416,VALID,0,VALID,20.891,VALID,42,VALID,0.789453,
2012-04-14, 01:12:04,VALID,916.458,VALID,0,VALID,97.5111,VALID,0,VALID,20.8714,VALID,42,VALID,0.182031,
2012-04-14, 01:13:04,VALID,916.383,VALID,0,VALID,97.5416,VALID,0,VALID,20.891,VALID,42,VALID,0.163281,
2012-04-14, 01:14:04,VALID,916.43,VALID,0,VALID,97.534,VALID,0,VALID,20.8714,VALID,42,VALID,0.328516,
2012-04-14, 01:15:04,VALID,916.388,VALID,0,VALID,97.5492,VALID,0,VALID,20.891,VALID,42,VALID,0,
2012-04-14, 01:16:04,VALID,916.393,VALID,0,VALID,97.534,VALID,0,VALID,20.8519,VALID,42,VALID,0.0535156,
2012-04-14, 01:17:04,VALID,916.333,VALID,0,VALID,97.5569,VALID,0,VALID,20.8519,VALID,42,VALID,0,
2012-04-14, 01:18:04,VALID,916.353,VALID,0,VALID,97.5492,VALID,0,VALID,20.8519,VALID,42,VALID,0,
2012-04-14, 01:19:04,VALID,916.32,VALID,0,VALID,97.5492,VALID,0,VALID,20.8129,VALID,42,VALID,0,
2012-04-14, 01:20:04,VALID,916.32,VALID,0,VALID,97.534,VALID,0,VALID,20.7934,VALID,42,VALID,0,
2012-04-14, 01:21:04,VALID,916.307,VALID,0,VALID,97.5645,VALID,0,VALID,20.795,VALID,42,VALID,0.212891,
2012-04-14, 01:22:04,VALID,916.3,VALID,0,VALID,97.5569,VALID,0,VALID,20.7544,VALID,42,VALID,0.0191406,
2012-04-14, 01:23:04,VALID,916.279,VALID,0,VALID,97.5492,VALID,0,VALID,20.7755,VALID,42,VALID,0.339063,
2012-04-14, 01:24:04,VALID,916.238,VALID,0,VALID,97.5569,VALID,0,VALID,20.7349,VALID,42,VALID,0.0324219,
2012-04-14, 01:25:04,VALID,916.268,VALID,0,VALID,97.5569,VALID,0,VALID,20.7349,VALID,42,VALID,0.769922,
2012-04-14, 01:26:04,VALID,916.233,VALID,0,VALID,97.5416,VALID,0,VALID,20.7349,VALID,42,VALID,0.273828,
2012-04-14, 01:27:04,VALID,916.218,VALID,0,VALID,97.5492,VALID,0,VALID,20.7154,VALID,42,VALID,0.166797,
2012-04-14, 01:28:04,VALID,916.223,VALID,0,VALID,97.5645,VALID,0,VALID,20.6764,VALID,226,VALID,0.592188,
2012-04-14, 01:29:04,VALID,916.146,VALID,0,VALID,97.5645,VALID,0,VALID,20.6764,VALID,226,VALID,0.655469,
2012-04-14, 01:30:04,VALID,916.132,VALID,0,VALID,97.5569,VALID,0,VALID,20.6764,VALID,243,VALID,0.882422,
2012-04-14, 01:31:04,VALID,916.092,VALID,0,VALID,97.5492,VALID,0,VALID,20.6569,VALID,264,VALID,0.876172,
2012-04-14, 01:32:04,VALID,916.1,VALID,0,VALID,97.5569,VALID,0,VALID,20.6569,VALID,264,VALID,0.396094,
2012-04-14, 01:33:04,VALID,916.091,VALID,0,VALID,97.5569,VALID,0,VALID,20.6975,VALID,237,VALID,1.04141,
2012-04-14, 01:34:04,VALID,916.044,VALID,0,VALID,97.5645,VALID,0,VALID,20.6374,VALID,219,VALID,0.598047,
2012-04-14, 01:35:04,VALID,916.02,VALID,0,VALID,97.5492,VALID,0,VALID,20.6358,VALID,219,VALID,0.402344,
2012-04-14, 01:36:04,VALID,916.002,VALID,0,VALID,97.5721,VALID,0,VALID,20.6569,VALID,240,VALID,0.631641,
2012-04-14, 01:37:04,VALID,915.97,VALID,0,VALID,97.5492,VALID,0,VALID,20.678,VALID,245,VALID,0.694531,
2012-04-14, 01:38:04,VALID,915.941,VALID,0,VALID,97.5645,VALID,0,VALID,20.639,VALID,227,VALID,0.691016,
2012-04-14, 01:39:04,VALID,915.902,VALID,0,VALID,97.5569,VALID,0,VALID,20.5968,VALID,227,VALID,0.304688,
2012-04-14, 01:40:04,VALID,915.919,VALID,0,VALID,97.5721,VALID,0,VALID,20.5968,VALID,227,VALID,0.304297,
2012-04-14, 01:41:04,VALID,915.885,VALID,0,VALID,97.5797,VALID,0,VALID,20.5984,VALID,227,VALID,0.200391,
2012-04-14, 01:42:04,VALID,915.912,VALID,0,VALID,97.595,VALID,0.107441,VALID,20.6163,VALID,227,VALID,0.523828,
2012-04-14, 01:43:04,VALID,915.887,VALID,0,VALID,97.5721,VALID,0,VALID,20.6358,VALID,227,VALID,0.390625,
2012-04-14, 01:44:04,VALID,915.909,VALID,0,VALID,97.5645,VALID,0.107441,VALID,20.6358,VALID,227,VALID,0.608203,
2012-04-14, 01:45:04,VALID,915.881,VALID,0,VALID,97.5797,VALID,0,VALID,20.6553,VALID,227,VALID,0.744531,
2012-04-14, 01:46:04,VALID,915.92,VALID,0,VALID,97.5721,VALID,0,VALID,20.6748,VALID,227,VALID,0.3625,
2012-04-14, 01:47:04,VALID,915.927,VALID,0,VALID,97.595,VALID,0,VALID,20.6553,VALID,227,VALID,0.419922,
2012-04-14, 01:48:04,VALID,915.899,VALID,0,VALID,97.5645,VALID,0.107441,VALID,20.6553,VALID,227,VALID,0,
2012-04-14, 01:49:04,VALID,915.873,VALID,0,VALID,97.5721,VALID,0,VALID,20.6764,VALID,227,VALID,0.247266,
2012-04-14, 01:50:04,VALID,915.835,VALID,0,VALID,97.5645,VALID,0.107441,VALID,20.6374,VALID,227,VALID,0.0859375,
2012-04-14, 01:51:04,VALID,915.843,VALID,0,VALID,97.5797,VALID,0.107441,VALID,20.6748,VALID,227,VALID,0,
2012-04-14, 01:52:04,VALID,915.82,VALID,0,VALID,97.5873,VALID,0.107441,VALID,20.6537,VALID,227,VALID,0.00429688,
2012-04-14, 01:53:04,VALID,915.8,VALID,0,VALID,97.5797,VALID,0.107441,VALID,20.6959,VALID,227,VALID,0,
2012-04-14, 01:54:04,VALID,915.762,VALID,0,VALID,97.5569,VALID,0,VALID,20.6748,VALID,227,VALID,0,
2012-04-14, 01:55:04,VALID,915.755,VALID,0,VALID,97.5797,VALID,0,VALID,20.6764,VALID,227,VALID,0.339453,
2012-04-14, 01:56:04,VALID,915.753,VALID,0,VALID,97.595,VALID,0,VALID,20.6163,VALID,227,VALID,0.280859,
2012-04-14, 01:57:04,VALID,915.745,VALID,0,VALID,97.5873,VALID,0,VALID,20.6163,VALID,227,VALID,0.213672,
2012-04-14, 01:58:04,VALID,915.728,VALID,0,VALID,97.595,VALID,0,VALID,20.6374,VALID,227,VALID,0.0433594,
2012-04-14, 01:59:04,VALID,915.699,VALID,0,VALID,97.6026,VALID,0,VALID,20.639,VALID,227,VALID,0,
2012-04-14, 02:00:04,VALID,915.719,VALID,0,VALID,97.5797,VALID,0,VALID,20.6374,VALID,227,VALID,0,
2012-04-14, 02:01:04,VALID,915.679,VALID,0,VALID,97.5721,VALID,0,VALID,20.6374,VALID,227,VALID,0.384375,
2012-04-14, 02:02:04,VALID,915.657,VALID,0,VALID,97.595,VALID,0,VALID,20.5968,VALID,227,VALID,0.427734,
2012-04-14, 02:03:04,VALID,915.628,VALID,0,VALID,97.6102,VALID,0,VALID,20.6163,VALID,227,VALID,0.105859,
2012-04-14, 02:04:04,VALID,915.58,VALID,0,VALID,97.5797,VALID,0,VALID,20.6374,VALID,227,VALID,0,
2012-04-14, 02:05:04,VALID,915.603,VALID,0,VALID,97.5797,VALID,0,VALID,20.6585,VALID,227,VALID,0.00234375,
2012-04-14, 02:06:04,VALID,915.562,VALID,0,VALID,97.6026,VALID,0,VALID,20.6179,VALID,227,VALID,0,
2012-04-14, 02:07:04,VALID,915.56,VALID,0,VALID,97.6026,VALID,0,VALID,20.5984,VALID,227,VALID,0.596094,
2012-04-14, 02:08:04,VALID,915.579,VALID,0,VALID,97.5873,VALID,0,VALID,20.5984,VALID,227,VALID,0.337891,
2012-04-14, 02:09:04,VALID,915.586,VALID,0,VALID,97.5645,VALID,0,VALID,20.6179,VALID,227,VALID,0,
2012-04-14, 02:10:04,VALID,915.59,VALID,0,VALID,97.5873,VALID,0,VALID,20.6194,VALID,227,VALID,0,
2012-04-14, 02:11:04,VALID,915.568,VALID,0,VALID,97.6102,VALID,0,VALID,20.5773,VALID,227,VALID,0.435937,
2012-04-14, 02:12:04,VALID,915.569,VALID,0,VALID,97.595,VALID,0,VALID,20.639,VALID,227,VALID,0.173047,
2012-04-14, 02:13:04,VALID,915.553,VALID,0,VALID,97.595,VALID,0,VALID,20.6179,VALID,227,VALID,0.327344,
2012-04-14, 02:14:04,VALID,915.536,VALID,0,VALID,97.5797,VALID,0,VALID,20.6179,VALID,227,VALID,0.261719,
2012-04-14, 02:15:04,VALID,915.516,VALID,0,VALID,97.6102,VALID,0,VALID,20.5984,VALID,227,VALID,0.126563,
2012-04-14, 02:16:04,VALID,915.48,VALID,0,VALID,97.595,VALID,0,VALID,20.6163,VALID,227,VALID,0,
2012-04-14, 02:17:04,VALID,915.51,VALID,0,VALID,97.6026,VALID,0,VALID,20.6179,VALID,227,VALID,0.177344,
2012-04-14, 02:18:04,VALID,915.473,VALID,0,VALID,97.6026,VALID,0,VALID,20.5578,VALID,227,VALID,0.321875,
2012-04-14, 02:19:04,VALID,915.476,VALID,0,VALID,97.6102,VALID,0,VALID,20.5594,VALID,227,VALID,0,
2012-04-14, 02:20:04,VALID,915.492,VALID,0,VALID,97.6026,VALID,0,VALID,20.5789,VALID,227,VALID,0,
2012-04-14, 02:21:04,VALID,915.466,VALID,0,VALID,97.6102,VALID,0,VALID,20.5789,VALID,227,VALID,0.103516,
2012-04-14, 02:22:04,VALID,915.496,VALID,0,VALID,97.6026,VALID,0,VALID,20.5984,VALID,227,VALID,0.397266,
2012-04-14, 02:23:04,VALID,915.47,VALID,0,VALID,97.595,VALID,0,VALID,20.6194,VALID,227,VALID,0.56875,
2012-04-14, 02:24:04,VALID,915.521,VALID,0,VALID,97.595,VALID,0,VALID,20.639,VALID,227,VALID,0.280078,
2012-04-14, 02:25:04,VALID,915.509,VALID,0,VALID,97.6102,VALID,0,VALID,20.5984,VALID,227,VALID,0.416406,
2012-04-14, 02:26:04,VALID,915.534,VALID,0,VALID,97.5873,VALID,0,VALID,20.5789,VALID,227,VALID,0.287109,
2012-04-14, 02:27:04,VALID,915.533,VALID,0,VALID,97.595,VALID,0,VALID,20.5383,VALID,227,VALID,0.417188,
2012-04-14, 02:28:04,VALID,915.546,VALID,0,VALID,97.6026,VALID,0,VALID,20.5999,VALID,227,VALID,0.25625,
2012-04-14, 02:29:04,VALID,915.557,VALID,0,VALID,97.6102,VALID,0,VALID,20.5773,VALID,227,VALID,0.265625,
2012-04-14, 02:30:04,VALID,915.566,VALID,0,VALID,97.6102,VALID,0,VALID,20.66,VALID,227,VALID,0.213672,
2012-04-14, 02:31:04,VALID,915.569,VALID,0,VALID,97.6102,VALID,0,VALID,20.5952,VALID,227,VALID,0,
2012-04-14, 02:32:04,VALID,915.561,VALID,0,VALID,97.6102,VALID,0,VALID,20.6163,VALID,227,VALID,0.125781,
2012-04-14, 02:33:04,VALID,915.538,VALID,0,VALID,97.6026,VALID,0,VALID,20.6179,VALID,227,VALID,0.176563,
2012-04-14, 02:34:04,VALID,915.583,VALID,0,VALID,97.6026,VALID,0,VALID,20.5789,VALID,227,VALID,0.241406,
2012-04-14, 02:35:04,VALID,915.598,VALID,0,VALID,97.6178,VALID,0,VALID,20.5383,VALID,227,VALID,0.05,
2012-04-14, 02:36:04,VALID,915.593,VALID,0,VALID,97.6026,VALID,0,VALID,20.5789,VALID,227,VALID,0,
2012-04-14, 02:37:04,VALID,915.601,VALID,0,VALID,97.6178,VALID,0,VALID,20.5757,VALID,227,VALID,0,
2012-04-14, 02:38:04,VALID,915.639,VALID,0,VALID,97.6026,VALID,0,VALID,20.6569,VALID,227,VALID,0,
2012-04-14, 02:39:04,VALID,915.651,VALID,0,VALID,97.5873,VALID,0,VALID,20.6374,VALID,227,VALID,0,
2012-04-14, 02:40:04,VALID,915.642,VALID,0,VALID,97.6026,VALID,0,VALID,20.6585,VALID,227,VALID,0.00078125,
2012-04-14, 02:41:04,VALID,915.7,VALID,0,VALID,97.6102,VALID,0,VALID,20.5757,VALID,228,VALID,0,
2012-04-14, 02:42:04,VALID,915.698,VALID,0,VALID,97.6102,VALID,0,VALID,20.678,VALID,227,VALID,0,
2012-04-14, 02:43:04,VALID,915.723,VALID,0,VALID,97.595,VALID,0,VALID,20.6569,VALID,228,VALID,0.454297,
2012-04-14, 02:44:04,VALID,915.732,VALID,0,VALID,97.6102,VALID,0,VALID,20.6764,VALID,228,VALID,0.458594,
2012-04-14, 02:45:04,VALID,915.758,VALID,0,VALID,97.5873,VALID,0,VALID,20.6764,VALID,229,VALID,0.292969,
2012-04-14, 02:46:04,VALID,915.737,VALID,0,VALID,97.6255,VALID,0,VALID,20.6959,VALID,229,VALID,0,
2012-04-14, 02:47:04,VALID,915.727,VALID,0,VALID,97.6255,VALID,0,VALID,20.6764,VALID,229,VALID,0,
2012-04-14, 02:48:04,VALID,915.741,VALID,0,VALID,97.6026,VALID,0,VALID,20.6959,VALID,229,VALID,0.305469,
2012-04-14, 02:49:04,VALID,915.732,VALID,0,VALID,97.6178,VALID,0,VALID,20.6959,VALID,229,VALID,0,
2012-04-14, 02:50:04,VALID,915.719,VALID,0,VALID,97.595,VALID,0,VALID,20.6975,VALID,229,VALID,0,
2012-04-14, 02:51:04,VALID,915.682,VALID,0,VALID,97.5873,VALID,0,VALID,20.6569,VALID,229,VALID,0.634766,
2012-04-14, 02:52:04,VALID,915.677,VALID,0,VALID,97.6026,VALID,0,VALID,20.6569,VALID,229,VALID,0.0269531,
2012-04-14, 02:53:04,VALID,915.711,VALID,0,VALID,97.595,VALID,0,VALID,20.6374,VALID,229,VALID,0,
2012-04-14, 02:54:04,VALID,915.693,VALID,0,VALID,97.6102,VALID,0,VALID,20.6764,VALID,229,VALID,0.08125,
2012-04-14, 02:55:04,VALID,915.682,VALID,0,VALID,97.6102,VALID,0,VALID,20.6358,VALID,229,VALID,0.0304688,
2012-04-14, 02:56:04,VALID,915.646,VALID,0,VALID,97.6102,VALID,0,VALID,20.6374,VALID,229,VALID,0.161328,
2012-04-14, 02:57:04,VALID,915.678,VALID,0,VALID,97.6255,VALID,0,VALID,20.6569,VALID,229,VALID,0.225391,
2012-04-14, 02:58:04,VALID,915.656,VALID,0,VALID,97.5873,VALID,0,VALID,20.6358,VALID,229,VALID,0,
2012-04-14, 02:59:04,VALID,915.636,VALID,0,VALID,97.5873,VALID,0,VALID,20.6358,VALID,229,VALID,0.309375,
2012-04-14, 03:00:04,VALID,915.591,VALID,0,VALID,97.6026,VALID,0,VALID,20.6179,VALID,229,VALID,0.221484,
2012-04-14, 03:01:04,VALID,915.583,VALID,0,VALID,97.6102,VALID,0,VALID,20.6179,VALID,229,VALID,0,
2012-04-14, 03:02:04,VALID,915.541,VALID,0,VALID,97.595,VALID,0,VALID,20.6179,VALID,229,VALID,0,
2012-04-14, 03:03:04,VALID,915.517,VALID,0,VALID,97.6178,VALID,0,VALID,20.6179,VALID,229,VALID,0,
2012-04-14, 03:04:04,VALID,915.456,VALID,0,VALID,97.6026,VALID,0,VALID,20.6374,VALID,229,VALID,0.473828,
2012-04-14, 03:05:04,VALID,915.428,VALID,0,VALID,97.6102,VALID,0,VALID,20.6358,VALID,229,VALID,0.0640625,
2012-04-14, 03:06:04,VALID,915.424,VALID,0,VALID,97.5797,VALID,0,VALID,20.6358,VALID,229,VALID,0.259766,
2012-04-14, 03:07:04,VALID,915.402,VALID,0,VALID,97.5873,VALID,0,VALID,20.6569,VALID,299,VALID,0.361719,
2012-04-14, 03:08:04,VALID,915.38,VALID,0,VALID,97.6102,VALID,0,VALID,20.6569,VALID,299,VALID,0.476953,
2012-04-14, 03:09:04,VALID,915.359,VALID,0,VALID,97.6178,VALID,0,VALID,20.6358,VALID,299,VALID,0.380859,
2012-04-14, 03:10:04,VALID,915.3,VALID,0,VALID,97.6026,VALID,0,VALID,20.6569,VALID,299,VALID,0.571875,
2012-04-14, 03:11:04,VALID,915.288,VALID,0,VALID,97.6178,VALID,0,VALID,20.6358,VALID,299,VALID,0,
2012-04-14, 03:12:04,VALID,915.238,VALID,0,VALID,97.595,VALID,0,VALID,20.6569,VALID,299,VALID,0.858984,
2012-04-14, 03:13:04,VALID,915.191,VALID,0,VALID,97.5797,VALID,0,VALID,20.6374,VALID,299,VALID,0.528125,
2012-04-14, 03:14:04,VALID,915.204,VALID,0,VALID,97.595,VALID,0,VALID,20.6163,VALID,300,VALID,0.388281,
2012-04-14, 03:15:04,VALID,915.213,VALID,0,VALID,97.5873,VALID,0,VALID,20.6374,VALID,300,VALID,0.494531,
2012-04-14, 03:16:04,VALID,915.226,VALID,0,VALID,97.595,VALID,0,VALID,20.5968,VALID,300,VALID,0.346484,
2012-04-14, 03:17:04,VALID,915.234,VALID,0,VALID,97.595,VALID,0,VALID,20.6374,VALID,301,VALID,0.262891,
2012-04-14, 03:18:04,VALID,915.261,VALID,0,VALID,97.5873,VALID,0,VALID,20.6179,VALID,301,VALID,0.695313,
2012-04-14, 03:19:04,VALID,915.289,VALID,0,VALID,97.595,VALID,0,VALID,20.5999,VALID,301,VALID,0.507031,
2012-04-14, 03:20:04,VALID,915.297,VALID,0,VALID,97.5721,VALID,0,VALID,20.5789,VALID,301,VALID,0.526563,
2012-04-14, 03:21:04,VALID,915.302,VALID,0,VALID,97.595,VALID,0,VALID,20.5999,VALID,301,VALID,0,
2012-04-14, 03:22:04,VALID,915.289,VALID,0,VALID,97.5645,VALID,0,VALID,20.5789,VALID,345,VALID,0.796484,
2012-04-14, 03:23:04,VALID,915.297,VALID,0,VALID,97.5873,VALID,0,VALID,20.5789,VALID,345,VALID,0.601172,
2012-04-14, 03:24:04,VALID,915.26,VALID,0,VALID,97.5873,VALID,0,VALID,20.5984,VALID,346,VALID,0.779688,
2012-04-14, 03:25:04,VALID,915.269,VALID,0,VALID,97.5873,VALID,0,VALID,20.5773,VALID,8,VALID,0.858203,
2012-04-14, 03:26:04,VALID,915.25,VALID,0,VALID,97.595,VALID,0,VALID,20.5773,VALID,16,VALID,0.569141,
2012-04-14, 03:27:04,VALID,915.299,VALID,0,VALID,97.595,VALID,0,VALID,20.5773,VALID,16,VALID,0.955469,
2012-04-14, 03:28:04,VALID,915.31,VALID,0,VALID,97.5873,VALID,0,VALID,20.5562,VALID,16,VALID,0.982422,
2012-04-14, 03:29:04,VALID,915.328,VALID,0,VALID,97.5721,VALID,0,VALID,20.5773,VALID,16,VALID,0.883594,
2012-04-14, 03:30:04,VALID,915.341,VALID,0,VALID,97.6331,VALID,0.107441,VALID,20.5578,VALID,16,VALID,1.09844,
2012-04-14, 03:31:04,VALID,915.357,VALID,0,VALID,97.5873,VALID,0.107441,VALID,20.5383,VALID,15,VALID,0.975391,
2012-04-14, 03:32:04,VALID,915.388,VALID,0,VALID,97.5797,VALID,0,VALID,20.5578,VALID,15,VALID,1.11992,
2012-04-14, 03:33:04,VALID,915.38,VALID,0,VALID,97.5797,VALID,0,VALID,20.5367,VALID,15,VALID,1.02813,
2012-04-14, 03:34:04,VALID,915.395,VALID,0,VALID,97.595,VALID,0.107441,VALID,20.5188,VALID,1,VALID,1.02734,
2012-04-14, 03:35:04,VALID,915.412,VALID,0,VALID,97.5873,VALID,0,VALID,20.5383,VALID,21,VALID,0.771484,
2012-04-14, 03:36:04,VALID,915.421,VALID,0,VALID,97.595,VALID,0,VALID,20.5773,VALID,21,VALID,0.1625,
2012-04-14, 03:37:04,VALID,915.426,VALID,0,VALID,97.5797,VALID,0.107441,VALID,20.5789,VALID,21,VALID,0.757031,
2012-04-14, 03:38:04,VALID,915.413,VALID,0,VALID,97.5797,VALID,0.107441,VALID,20.5773,VALID,21,VALID,0.5875,
2012-04-14, 03:39:04,VALID,915.434,VALID,0,VALID,97.6026,VALID,0,VALID,20.5789,VALID,21,VALID,0.647266,
2012-04-14, 03:40:04,VALID,915.482,VALID,0,VALID,97.595,VALID,0,VALID,20.5984,VALID,21,VALID,0.658984,
2012-04-14, 03:41:04,VALID,915.492,VALID,0,VALID,97.595,VALID,0,VALID,20.5984,VALID,21,VALID,0.590625,
2012-04-14, 03:42:04,VALID,915.48,VALID,0,VALID,97.6026,VALID,0,VALID,20.5594,VALID,337,VALID,1.16406,
2012-04-14, 03:43:04,VALID,915.505,VALID,0,VALID,97.595,VALID,0,VALID,20.5594,VALID,9,VALID,0.9625,
2012-04-14, 03:44:04,VALID,915.476,VALID,0,VALID,97.6026,VALID,0,VALID,20.5594,VALID,8,VALID,0.773828,
2012-04-14, 03:45:04,VALID,915.496,VALID,0,VALID,97.5721,VALID,0,VALID,20.5399,VALID,8,VALID,0.266797,
2012-04-14, 03:46:04,VALID,915.456,VALID,0,VALID,97.5873,VALID,0,VALID,20.5399,VALID,8,VALID,0.267188,
2012-04-14, 03:47:04,VALID,915.456,VALID,0,VALID,97.5873,VALID,0,VALID,20.5594,VALID,8,VALID,0.00585938,
2012-04-14, 03:48:04,VALID,915.46,VALID,0,VALID,97.6102,VALID,0,VALID,20.5594,VALID,8,VALID,0,